Cheyenne, WY

7:02 AM MDT on March 25, 2017 (GMT -0600)
Cheyenne

Weather History for KCYS - February, 2012

Change the Weather History Date:

Friday, February 10, 2012

  Actual Average Record
Temperature  
Mean Temperature 20 °F 29 °F  
Max Temperature 30 °F 39 °F 68 °F (2017)
Min Temperature 10 °F 18 °F -18 °F (1899)
Degree Days  
Heating Degree Days 45 36  
Month to date heating degree days 407 368  
Since 1 July heating degree days 4249 4395  
Cooling Degree Days 0 0  
Month to date cooling degree days 0 0  
Year to date cooling degree days 0 0  
Moisture  
Dew Point 14 °F    
Average Humidity 77    
Maximum Humidity 92    
Minimum Humidity 62    
Precipitation  
Precipitation 0.19 in 0.01 in 0.52 in (1995)
Month to date precipitation 0.53 0.14  
Year to date precipitation 0.66 0.47  
Snow  
Snow 2.50 in 0.30 in 7.50 in (1995)
Month to date snowfall 7.0 2.6  
Since 1 July snowfall 44.4 31.2  
Snow Depth 2.00 in    
Sea Level Pressure  
Sea Level Pressure 30.21 in    
Wind  
Wind Speed 9 mph (East)    
Max Wind Speed 23 mph    
Max Gust Speed 38 mph    
Visibility 4 miles    
Events Fog , Snow    
T = Trace of Precipitation, MM = Missing Value Source: NWS Daily Summary

Daily Weather History Graph

Daily Weather History Graph

Search for Another Location

Airport or City:

Trip Planner

Search our weather history database for the weather conditions in past years. The results will help you decide how hot, cold, wet, or windy it might be!

Date:

Astronomy

Feb. 10, 2012 Rise Set
Actual Time 7:00 AM MST 5:26 PM MST
Civil Twilight 6:32 AM MST 5:55 PM MST
Nautical Twilight 5:59 AM MST 6:27 PM MST
Astronomical Twilight 5:27 AM MST 6:59 PM MST
Moon 9:10 PM MST (2/10) 8:08 AM MST (2/10)
Length of Visible Light 11h 23m
Length of Day
10h 25m
Waning Gibbous, 89% of the Moon is Illuminated
Feb 10
Waning Gibbous
Feb 14
Last Quarter
Feb 21
New
Feb 29
First Quarter
Mar 8
Full

Hourly Weather History & Observations

Time (MST) Temp. Windchill Dew Point Humidity Pressure Visibility Wind Dir Wind Speed Gust Speed Precip Events Conditions
12:53 AM 21.0 °F 8.1 °F 10.9 °F 65% 30.25 in 10.0 mi West 13.8 mph - N/A   Clear
1:53 AM 18.0 °F 11.1 °F 9.0 °F 68% 30.24 in 10.0 mi WNW 4.6 mph - N/A   Clear
2:53 AM 16.0 °F 5.3 °F 7.0 °F 68% 30.22 in 10.0 mi WNW 8.1 mph - N/A   Clear
3:53 AM 12.9 °F -0.2 °F 6.1 °F 74% 30.22 in 10.0 mi West 10.4 mph - N/A   Clear
4:53 AM 21.9 °F 13.4 °F 12.0 °F 66% 30.21 in 10.0 mi WNW 6.9 mph - N/A   Clear
5:53 AM 16.0 °F 5.3 °F 9.0 °F 74% 30.25 in 10.0 mi West 8.1 mph - N/A   Clear
6:53 AM 18.0 °F 7.7 °F 10.0 °F 71% 30.25 in 10.0 mi West 8.1 mph - N/A   Clear
7:53 AM 21.9 °F 10.4 °F 12.9 °F 68% 30.24 in 10.0 mi SW 11.5 mph - N/A   Overcast
8:53 AM 26.1 °F 15.6 °F 16.0 °F 66% 30.23 in 10.0 mi West 11.5 mph - N/A   Overcast
9:53 AM 28.0 °F 17.0 °F 19.0 °F 69% 30.24 in 10.0 mi NNE 13.8 mph - N/A   Overcast
10:53 AM 26.1 °F 14.5 °F 18.0 °F 71% 30.26 in 9.0 mi NNE 13.8 mph 18.4 mph 0.00 in Snow Light Snow
11:53 AM 24.1 °F 14.4 °F 17.1 °F 75% 30.30 in 10.0 mi ENE 9.2 mph - 0.00 in   Overcast
12:53 PM 24.1 °F 15.2 °F 16.0 °F 71% 30.26 in 9.0 mi NE 8.1 mph - 0.00 in   Overcast
1:16 PM 24.8 °F 14.0 °F 17.6 °F 74% 30.11 in 6.0 mi NE 11.5 mph - 0.00 in Snow Light Snow
1:23 PM 23.0 °F 13.1 °F 17.6 °F 80% 30.12 in 6.0 mi ENE 9.2 mph - 0.00 in Snow Light Snow
1:43 PM 23.0 °F 13.1 °F 15.8 °F 74% 30.12 in 2.0 mi ENE 9.2 mph - 0.00 in Snow Light Snow
1:53 PM 21.9 °F 14.5 °F 16.0 °F 78% 30.31 in 2.0 mi North 5.8 mph - 0.00 in Snow Light Snow
2:06 PM 23.0 °F 15.8 °F 17.6 °F 80% 30.12 in 1.5 mi NNE 5.8 mph - 0.00 in Snow Light Snow
2:31 PM 23.0 °F 18.4 °F 17.6 °F 80% 30.13 in 1.2 mi ENE 3.5 mph - 0.00 in Snow Light Snow
2:53 PM 23.0 °F - 18.0 °F 81% 30.32 in 1.0 mi Calm Calm - 0.00 in Snow Light Snow
3:23 PM 24.8 °F 17.9 °F 17.6 °F 74% 30.12 in 2.0 mi NE 5.8 mph - 0.01 in Snow Light Snow
3:34 PM 23.0 °F 17.0 °F 17.6 °F 80% 30.12 in 2.5 mi ENE 4.6 mph - 0.01 in Snow Light Snow
3:53 PM 23.0 °F 17.0 °F 18.0 °F 81% 30.33 in 4.0 mi NE 4.6 mph - 0.01 in   Haze
4:07 PM 23.0 °F 15.8 °F 17.6 °F 80% 30.12 in 4.0 mi ESE 5.8 mph - 0.00 in Snow Light Snow
4:27 PM 21.2 °F 11.7 °F 17.6 °F 86% 30.13 in 2.0 mi East 8.1 mph - 0.00 in Snow Light Snow
4:32 PM 21.2 °F 11.7 °F 17.6 °F 86% 30.12 in 1.5 mi ESE 8.1 mph - 0.00 in Snow Light Snow
4:53 PM 21.0 °F 11.4 °F 18.0 °F 88% 30.29 in 0.8 mi ESE 8.1 mph - 0.01 in Snow Light Snow
5:05 PM 21.2 °F 12.6 °F 17.6 °F 86% 30.12 in 0.5 mi ESE 6.9 mph - 0.01 in Fog , Snow Light Snow
5:12 PM 19.4 °F 8.6 °F 17.6 °F 93% 30.12 in 0.8 mi ESE 9.2 mph - 0.01 in Snow Light Snow
5:16 PM 19.4 °F 8.6 °F 17.6 °F 93% 30.12 in 1.0 mi ESE 9.2 mph - 0.01 in Snow Light Snow
5:31 PM 19.4 °F 8.6 °F 17.6 °F 93% 30.12 in 1.2 mi East 9.2 mph - 0.02 in Snow Light Snow
5:46 PM 19.4 °F 8.6 °F 17.6 °F 93% 30.12 in 2.0 mi ESE 9.2 mph - 0.02 in Snow Light Snow
5:53 PM 19.9 °F 10.1 °F 17.1 °F 89% 30.33 in 1.8 mi ESE 8.1 mph - 0.02 in Snow Light Snow
6:53 PM 18.0 °F 6.9 °F 16.0 °F 92% 30.35 in 1.0 mi East 9.2 mph - 0.03 in Snow Light Snow
7:31 PM 17.6 °F 7.3 °F 14.0 °F 86% 30.16 in 1.5 mi East 8.1 mph - 0.01 in Snow Light Snow
7:53 PM 16.0 °F 3.6 °F 12.9 °F 88% 30.36 in 1.5 mi East 10.4 mph - 0.02 in Snow Light Snow
8:09 PM 15.8 °F 3.4 °F 12.2 °F 86% 30.17 in 1.8 mi East 10.4 mph - 0.01 in Snow Light Snow
8:15 PM 15.8 °F -2.3 °F 12.2 °F 86% 30.17 in 1.8 mi South 23.0 mph 36.8 mph 0.01 in Snow Light Snow
8:22 PM 15.8 °F 3.4 °F 12.2 °F 86% 30.17 in 2.0 mi East 10.4 mph 38.0 mph 0.01 in Snow Light Snow
8:31 PM 15.8 °F 4.2 °F 12.2 °F 86% 30.18 in 2.0 mi East 9.2 mph - 0.01 in Snow Light Snow
8:38 PM 15.8 °F 3.4 °F 12.2 °F 86% 30.17 in 1.8 mi ESE 10.4 mph - 0.01 in Snow Light Snow
8:48 PM 15.8 °F 2.7 °F 12.2 °F 86% 30.18 in 1.5 mi East 11.5 mph - 0.01 in Snow Light Snow
8:53 PM 15.1 °F 2.5 °F 12.0 °F 88% 30.36 in 1.8 mi ESE 10.4 mph - 0.02 in Snow Light Snow
9:11 PM 14.0 °F 2.0 °F 10.4 °F 86% 30.18 in 2.0 mi ESE 9.2 mph - 0.00 in Snow Light Snow
9:21 PM 14.0 °F 1.2 °F 10.4 °F 86% 30.18 in 1.8 mi ESE 10.4 mph - 0.00 in Snow Light Snow
9:53 PM 14.0 °F 2.0 °F 10.9 °F 88% 30.37 in 1.0 mi ESE 9.2 mph - 0.02 in Snow Light Snow
10:36 PM 14.0 °F 1.2 °F 10.4 °F 86% 30.21 in 0.8 mi SSE 10.4 mph - 0.02 in Snow Light Snow
10:49 PM 12.2 °F -1.0 °F 10.4 °F 92% 30.21 in 0.8 mi SSE 10.4 mph - 0.02 in Snow Light Snow
10:53 PM 12.9 °F 0.7 °F 9.0 °F 84% 30.40 in 0.8 mi SE 9.2 mph - 0.02 in Snow Light Snow
11:16 PM 10.4 °F -4.8 °F 8.6 °F 92% 30.23 in 1.0 mi SE 12.7 mph - 0.02 in Snow Light Snow
11:44 PM 10.4 °F -1.5 °F 8.6 °F 92% 30.23 in 1.2 mi SE 8.1 mph - 0.03 in Snow Light Snow
11:53 PM 10.9 °F -2.6 °F 7.0 °F 84% 30.45 in 1.5 mi SE 10.4 mph - 0.03 in Snow Light Snow